Tracking 30746 objects as of 20-Jun-2025
HD Live streaming from Space Station
objects crossing your sky now

COSMOS 1275 DEB

Track COSMOS 1275 DEB now!
10-day predictions


NORAD ID: 12768
Int'l Code: 1981-053DM
Perigee: 908.8 km
Apogee: 983.2 km
Inclination: 82.9 °
Period: 103.8 minutes
Semi major axis: 7316 km
RCS: 0.042 m2 (small)
Launch date: June 4, 1981
Source: Commonwealth of Independent States (former USSR) (CIS)
Launch site: PLESETSK MISSILE AND SPACE COMPLEX (PKMTR)

Note: This is SATELLITE DEBRIS
Your satellite tracking list
Your tracking list is empty




NASA's NSSDC Master Catalog

Two Line Element Set (TLE):
1 12768U 81053DM  25170.05175675  .00000496  00000-0  40522-3 0  9997
2 12768  82.9309  15.6142 0050799  65.0425  59.9872 13.87088274209243
Source of the keplerian elements: AFSPC